Weather in Burg bei Magdeburg

Germany     52°16′04″N   11°50′53″E
temp.,
°C
wind,
m/s
gust,
m/s
humid.,
%
clouds,
%
prec.,
mm/h
press.,
hPa
HPBL,
m
16 may, mon
mon1623:00+12ene347338 0.0 102042
02:00+10e22856 0.0 102025
05:00+9ese348118 0.0 101960
08:00+14ese366823 0.0 1019246
11:00+21ese565015 0.0 1018879
14:00+24se4545100 0.0 10171484
17:00+23s2253100 0.0 10151370
20:00+18se367593 0.1 1015156
17 may, tue
tue1723:00+14ssw2290100 0.0 101821
02:00+14wnw3797100 0.1 1018240
05:00+14wnw2898100 0.6 1018339
08:00+15wnw4896100 1.8 1019524
11:00+15nnw479295 0.6 1021585
14:00+16nne348372 0.8 1021596
17:00+18ne3473100 0.0 1021638
20:00+15e3583100 0.0 1022287
18 may, wed
wed1823:00+12ese3787100 0.0 1023168
02:00+11ese3687100 0.0 1023130
05:00+10ese368873 0.0 1024107
08:00+14se487112 0.0 1025364
11:00+19sse56565 0.0 1025818
14:00+22sse44525 0.0 10241210
17:00+23sse335324 0.0 10231226
20:00+20sse22715 0.0 102324
19 may, thu
thu1923:00+16sse348355 0.0 102357
02:00+14sse348814 0.0 102261
05:00+14sse349099 0.0 102267
08:00+18sse3679100 0.0 1021187
11:00+24s4659100 0.0 1020653
14:00+26s5652100 0.0 10191251
17:00+26ssw4656100 0.0 10171510
20:00+23ssw3673100 0.0 1016120
20 may, fri
fri2023:00+16w61690100 5.1 1018484
02:00+15w31195100 5.2 1018337
05:00+15w4109798 0.0 1019423
08:00+14wnw5890100 0.1 1021692
11:00+15wnw4579100 0.0 1022715
14:00+19w3357100 0.0 1021944
17:00+21wsw2349100 0.0 10191105
20:00+18se116799 0.0 101711